Wind_Speed
72 71 69 68 64 68 66 57 58 49 48 37 38 32 25 22 26 22 30 25 22 16 11 15 15 13 12 14 19 20 19 16 14 13 19 22 24 26 26 29 31 32 32 29
76 75 74 70 68 65 68 60 57 56 56 50 43 38 31 25 29 26 27 22 25 21 15 15 13 11 7 10 15 16 18 16 15 14 15 16 20 23 23 21 27 29 31 31
78 82 77 74 73 68 68 66 62 60 56 53 51 45 38 30 33 28 30 28 29 25 18 18 20 7 4 10 12 14 14 15 14 11 8 14 13 16 19 19 23 26 27 27
84 82 80 78 74 72 65 73 69 65 61 54 51 48 45 35 33 31 31 33 28 22 20 26 20 6 2 5 9 12 13 15 14 12 7 8 9 11 13 15 18 22 23 24
87 84 83 81 80 75 74 71 75 69 63 62 54 52 51 41 37 37 42 36 26 23 20 30 16 14 9 3 4 7 10 12 12 13 12 10 9 9 10 13 13 16 18 21
80 84 84 85 85 80 77 71 74 74 68 63 60 53 53 48 39 37 36 35 20 22 23 28 24 25 17 10 7 6 6 9 9 11 12 9 6 4 6 7 9 12 14 15
80 84 86 86 86 86 79 75 70 76 74 71 64 53 51 53 45 40 31 37 29 27 29 31 32 22 15 13 14 11 9 9 7 8 9 8 8 10 2 5 9 7 10 8
73 81 88 88 86 88 83 79 74 71 79 77 67 58 57 49 47 48 41 29 32 32 37 36 33 28 21 19 20 18 13 13 13 10 9 10 10 13 12 6 6 6 10 6
68 74 87 92 91 90 88 83 79 75 77 79 73 68 66 59 53 46 46 42 40 40 43 39 31 31 26 27 20 23 18 17 15 12 14 10 7 13 16 13 8 4 4 2
65 68 79 89 94 97 95 87 86 81 77 79 79 73 70 65 55 50 41 41 41 38 34 45 29 35 30 25 21 22 21 15 12 6 12 19 13 7 12 15 14 7 6 8
65 67 73 84 91 95 93 91 89 85 83 78 81 82 77 77 66 60 53 50 51 48 39 35 40 38 31 23 20 23 22 19 13 7 4 9 17 20 12 11 17 15 10 10
72 74 76 74 88 96 96 95 94 91 87 83 82 84 83 80 74 72 68 57 59 59 60 44 43 37 38 32 26 28 26 21 11 11 16 16 9 14 21 24 13 14 17 15
79 79 77 76 84 94 98 99 95 95 94 89 85 88 83 79 73 75 79 71 73 65 59 62 54 51 43 35 36 33 32 26 18 20 21 26 16 18 13 21 25 18 12 18
84 83 79 80 80 84 101 101 98 99 98 94 90 86 86 90 89 84 79 78 85 80 76 75 57 53 56 54 50 51 47 33 26 23 22 24 27 25 17 19 20 20 22 17
84 81 83 85 84 81 88 101 102 101 101 99 94 87 96 94 93 92 86 87 89 85 84 72 68 61 54 52 52 55 51 45 33 29 25 21 23 28 25 22 21 20 18 20
83 84 86 86 85 82 81 96 103 107 105 101 99 93 92 97 99 99 96 91 92 92 91 85 82 78 74 69 61 61 61 58 47 41 33 35 29 31 30 28 24 21 25 25
75 88 94 88 85 89 88 89 106 112 107 104 100 97 95 94 98 103 103 98 94 95 97 95 91 88 83 85 73 74 73 70 62 50 45 41 42 39 38 35 32 28 24 28
66 78 90 102 99 94 91 91 100 113 109 106 102 100 100 98 97 99 106 102 99 100 98 96 93 88 89 89 84 82 77 77 73 61 54 49 44 41 42 36 40 41 33 34
60 71 82 87 89 96 97 96 98 107 110 106 105 103 102 103 100 99 101 106 105 106 106 102 99 97 99 95 94 89 81 81 83 74 66 59 54 52 52 43 41 41 46 43
58 65 74 82 87 99 101 102 102 101 108 110 109 107 104 103 105 103 102 103 106 109 108 109 106 105 104 104 101 97 92 89 87 83 78 72 64 63 63 61 53 54 56 56
56 64 71 79 86 92 94 97 102 102 101 109 110 110 109 107 106 106 106 106 105 105 109 114 113 110 109 108 106 104 99 95 92 90 86 81 78 75 78 75 70 68 65 66
55 61 69 74 80 87 92 98 102 101 101 101 115 115 112 112 111 110 110 112 111 110 107 105 108 113 115 113 110 107 104 101 98 96 94 91 89 86 85 89 88 84 82 81
52 60 66 70 75 81 87 92 96 99 102 100 107 118 118 118 118 116 115 115 116 115 113 110 109 106 105 106 106 106 106 106 105 103 100 95 90 90 90 90 90 94 91 86
51 57 64 69 72 78 84 87 91 95 99 102 107 112 121 124 125 123 120 119 118 118 116 114 112 111 110 109 107 105 102 99 97 95 92 90 90 91 92 93 94 96 95 99
49 54 60 65 69 72 78 84 89 91 94 99 105 112 116 124 126 126 126 122 121 121 120 119 118 117 114 112 111 111 108 106 103 100 97 94 91 91 91 96 97 99 99 99
41 48 53 57 64 69 74 79 83 89 94 97 103 108 112 120 124 127 129 127 126 125 125 123 122 120 118 116 115 114 113 112 109 106 105 102 99 97 94 94 95 100 102 102
Wind_Direction
216 219 219 219 217 214 215 212 213 215 216 212 216 212 216 213 202 206 218 222 255 260 283 294 330 350 10 42 41 43 45 41 54 52 55 47 49 52 53 51 51 53 54 58
214 215 219 219 220 216 215 211 211 213 217 223 219 214 214 209 204 201 206 232 245 255 273 272 302 324 4 39 58 42 52 48 49 64 68 52 40 47 46 50 52 55 56 55
214 216 217 218 218 217 213 212 212 214 217 220 218 215 209 209 207 202 212 234 244 251 255 271 276 322 14 51 51 59 49 51 56 59 76 79 60 34 48 51 57 55 56 57
216 215 215 218 220 218 214 211 212 213 216 216 217 213 209 207 210 201 200 230 238 246 255 263 242 304 293 41 36 35 43 49 45 43 42 77 69 35 40 44 61 61 62 61
217 214 214 214 218 217 217 212 211 213 214 218 216 211 210 208 205 205 213 224 240 251 239 245 239 281 281 285 336 13 15 31 31 25 29 22 49 36 52 41 59 54 66 67
217 216 216 215 216 217 216 214 213 213 213 218 219 213 212 212 208 212 216 224 241 233 229 241 245 266 261 264 264 306 346 0 14 14 11 9 10 48 73 52 36 32 61 68
216 214 214 217 216 219 217 213 213 213 214 215 218 213 209 210 204 203 205 215 230 224 216 240 247 245 252 264 267 274 292 309 328 2 359 340 330 334 344 9 9 26 22 65
213 213 213 215 217 218 217 216 213 213 214 215 211 207 203 207 216 209 209 214 209 221 221 229 225 228 262 269 265 261 266 287 303 315 343 336 317 325 318 312 338 8 0 22
213 213 214 214 214 217 216 215 215 214 215 215 213 212 215 218 208 208 212 225 218 206 210 224 230 233 257 271 267 256 255 274 284 295 310 317 322 313 321 316 305 340 335 351
214 216 214 214 216 215 215 212 214 214 214 213 215 211 212 211 200 205 202 200 196 203 226 218 207 236 245 264 259 253 243 254 275 289 311 310 334 292 304 313 298 302 279 283
217 217 215 215 215 219 218 214 213 213 215 212 213 213 211 214 212 208 199 204 202 198 211 209 223 225 237 237 229 214 235 252 263 246 249 345 310 304 316 327 309 294 285 281
219 219 215 214 215 216 218 216 216 214 214 213 211 214 214 214 215 200 200 200 203 202 204 210 216 224 229 224 221 212 228 245 269 257 254 266 289 320 294 318 301 298 290 287
218 219 215 215 215 214 219 218 216 216 216 213 211 210 213 214 207 197 205 202 210 211 208 214 220 222 212 200 207 213 233 229 250 277 268 257 255 287 281 297 309 292 290 288
218 217 216 218 216 216 217 216 218 218 217 216 214 209 207 210 211 208 209 214 215 220 221 225 214 218 213 208 219 218 225 230 254 260 265 257 247 272 252 268 286 286 289 301
220 219 218 219 215 214 216 219 217 220 219 217 215 211 211 213 216 216 214 216 216 214 220 211 212 217 229 224 227 232 232 241 246 251 255 234 234 245 258 254 254 278 289 285
218 217 220 220 217 215 215 216 218 220 219 218 216 211 214 218 217 219 218 218 218 218 217 218 225 231 237 232 233 235 243 247 247 247 241 232 232 232 260 245 233 253 269 277
214 215 218 218 217 218 216 214 218 221 219 218 217 214 216 216 220 221 221 220 219 222 223 226 230 232 233 229 232 236 243 245 245 247 245 239 238 242 242 232 233 225 227 258
213 215 214 219 219 217 216 217 220 219 220 220 217 216 217 218 220 221 223 221 219 219 224 228 231 230 227 229 235 241 241 239 241 244 245 240 234 234 227 234 232 232 225 235
214 216 217 217 217 221 215 219 221 221 218 221 221 217 218 219 220 223 224 224 223 222 224 226 228 229 228 234 237 240 240 237 237 243 243 240 233 229 229 225 235 235 237 232
217 217 218 218 216 218 218 217 219 221 219 220 221 220 218 221 222 222 225 227 226 226 226 228 228 229 233 235 237 238 237 236 238 243 242 241 233 227 228 227 225 231 235 235
220 219 218 218 219 219 221 221 222 223 221 220 221 223 221 221 223 225 225 226 227 227 228 229 231 232 233 235 237 238 239 240 241 242 242 241 239 229 225 231 231 232 229 236
218 221 223 221 220 222 222 222 222 222 224 223 222 222 224 223 224 225 227 227 228 227 227 229 232 233 235 236 238 240 241 241 241 243 244 244 243 241 234 231 234 236 238 241
223 222 225 224 224 223 224 225 224 224 221 222 224 223 222 225 225 226 228 230 230 229 229 229 230 232 234 236 237 239 241 242 243 243 243 243 241 239 239 238 239 238 241 240
224 223 225 228 226 225 226 226 227 227 224 222 224 224 224 226 227 227 228 230 232 234 233 232 231 232 233 235 236 237 238 239 240 240 240 238 238 236 238 239 239 239 240 241
230 228 228 228 229 229 229 230 231 230 228 226 225 227 228 227 229 230 231 231 232 234 236 235 235 234 234 235 237 239 239 239 239 240 240 240 238 238 236 236 240 239 242 243
241 235 234 232 232 232 231 231 232 233 232 231 228 227 229 230 230 232 232 233 234 237 238 238 238 238 238 237 238 240 241 242 242 242 242 242 241 240 240 239 237 237 241 243
Height
10895 10902 10910 10917 10926 10937 10944 10960 10970 10982 10982 10986 10991 10999 11002 11005 11010 11012 11016 11017 11017 11019 11022 11022 11022 11019 11018 11016 11011 11009 11008 11004 11002 11001 11000 10998 10995 10992 10989 10987 10985 10982 10980 10978
10881 10888 10896 10908 10916 10927 10938 10952 10960 10965 10969 10974 10983 10992 10998 11001 11007 11010 11011 11014 11015 11018 11020 11022 11023 11022 11020 11020 11017 11013 11011 11008 11007 11006 11003 11002 10998 10995 10993 10991 10988 10987 10986 10984
10866 10868 10884 10893 10900 10913 10929 10942 10947 10953 10959 10968 10975 10983 10993 10997 11002 11008 11010 11011 11013 11016 11018 11020 11023 11023 11021 11020 11019 11017 11015 11012 11010 11007 11004 11002 11001 10999 10997 10996 10995 10992 10991 10990
10846 10860 10872 10881 10892 10903 10917 10925 10936 10941 10949 10957 10968 10977 10985 10991 10997 11001 11005 11005 11010 11011 11013 11016 11019 11022 11022 11020 11018 11017 11016 11015 11013 11010 11007 11005 11004 11002 11001 11001 11000 10998 10996 10995
10825 10845 10857 10868 10876 10889 10899 10911 10921 10932 10941 10950 10958 10969 10978 10984 10991 10996 10998 11002 11006 11007 11009 11010 11014 11019 11021 11020 11018 11016 11015 11015 11014 11012 11010 11007 11005 11005 11004 11004 11003 11002 11000 10997
10816 10832 10847 10853 10859 10872 10883 10900 10913 10923 10933 10942 10949 10961 10969 10976 10984 10989 10993 10997 10999 11001 11004 11007 11011 11014 11017 11018 11017 11016 11015 11015 11014 11012 11010 11008 11006 11006 11006 11006 11006 11005 11003 11002
10795 10815 10827 10838 10849 10857 10875 10890 10902 10914 10923 10927 10941 10951 10959 10968 10974 10982 10987 10991 10993 10996 10998 11001 11007 11010 11013 11015 11015 11017 11015 11015 11015 11015 11013 11012 11010 11009 11007 11006 11007 11008 11007 11006
10782 10798 10811 10820 10835 10843 10863 10877 10891 10900 10905 10912 10931 10945 10952 10961 10969 10975 10981 10987 10989 10991 10995 10999 11003 11005 11008 11009 11012 11015 11016 11014 11014 11015 11014 11014 11013 11011 11010 11009 11010 11010 11011 11008
10775 10784 10792 10807 10815 10828 10845 10863 10875 10883 10894 10906 10922 10932 10941 10950 10959 10968 10975 10981 10981 10988 10992 10995 10997 11002 11003 11005 11008 11010 11014 11014 11012 11012 11012 11012 11014 11012 11011 11011 11011 11011 11011 11011
10764 10772 10784 10793 10801 10808 10820 10846 10856 10868 10880 10895 10908 10920 10929 10939 10950 10960 10968 10970 10976 10979 10984 10988 10990 10994 10998 11002 11003 11006 11008 11009 11008 11008 11011 11011 11011 11012 11012 11014 11013 11014 11013 11012
10752 10757 10766 10780 10791 10802 10814 10831 10839 10853 10864 10880 10889 10901 10914 10924 10937 10951 10958 10962 10968 10972 10976 10980 10985 10988 10993 10999 10999 11001 11003 11004 11004 11004 11009 11011 11013 11013 11009 11012 11013 11014 11013 11013
10731 10736 10751 10766 10776 10779 10794 10811 10825 10836 10846 10860 10875 10886 10899 10909 10923 10939 10948 10954 10958 10961 10963 10969 10971 10981 10987 10994 10995 10997 10998 10999 10999 11001 11003 11007 11010 11013 11012 11011 11012 11013 11014 11013
10708 10718 10737 10744 10751 10762 10775 10793 10807 10821 10832 10845 10857 10868 10884 10901 10915 10926 10936 10944 10947 10950 10956 10959 10967 10975 10981 10985 10984 10989 10991 10994 10995 10997 10999 11002 11006 11010 11010 11011 11012 11011 11012 11012
10686 10702 10718 10725 10740 10751 10760 10775 10791 10802 10812 10831 10845 10861 10872 10883 10896 10909 10919 10927 10934 10939 10944 10952 10959 10965 10969 10973 10975 10977 10982 10987 10991 10994 10996 10997 11000 11004 11008 11008 11009 11010 11010 11010
10674 10694 10699 10706 10721 10736 10751 10762 10773 10783 10798 10816 10834 10850 10856 10868 10878 10892 10902 10909 10917 10925 10931 10938 10946 10953 10960 10964 10966 10968 10972 10977 10985 10988 10992 10995 10994 10999 11001 11004 11004 11006 11006 11007
10658 10674 10680 10693 10706 10723 10728 10735 10751 10754 10773 10795 10816 10835 10844 10852 10861 10870 10883 10894 10904 10913 10918 10925 10931 10939 10946 10953 10956 10958 10961 10966 10975 10979 10985 10988 10991 10993 10996 10999 10999 10999 11001 11002
10635 10647 10661 10676 10688 10701 10710 10718 10723 10731 10761 10780 10799 10818 10825 10835 10844 10853 10863 10877 10888 10898 10903 10909 10915 10923 10930 10935 10940 10944 10947 10953 10963 10968 10974 10979 10982 10986 10989 10991 10992 10993 10994 10998
10620 10628 10637 10645 10664 10678 10691 10703 10704 10719 10742 10760 10780 10798 10806 10819 10826 10835 10843 10859 10871 10876 10881 10889 10898 10905 10911 10917 10921 10926 10935 10941 10948 10956 10964 10968 10972 10977 10980 10982 10983 10984 10986 10988
10611 10616 10625 10636 10654 10661 10670 10680 10689 10699 10726 10744 10758 10776 10788 10797 10808 10817 10824 10834 10847 10853 10858 10863 10873 10883 10892 10897 10902 10909 10919 10927 10934 10941 10949 10955 10960 10965 10969 10972 10973 10976 10975 10977
10594 10601 10609 10618 10628 10633 10651 10662 10671 10684 10708 10723 10736 10754 10765 10775 10785 10792 10800 10808 10820 10830 10838 10841 10851 10859 10866 10874 10880 10888 10898 10907 10915 10923 10932 10939 10946 10951 10956 10958 10960 10963 10964 10965
10579 10584 10590 10599 10609 10622 10637 10650 10658 10669 10690 10707 10719 10731 10745 10753 10760 10770 10776 10782 10794 10807 10816 10821 10828 10837 10845 10853 10860 10868 10878 10887 10896 10904 10912 10920 10926 10935 10938 10942 10944 10946 10948 10951
10564 10569 10575 10585 10597 10608 10617 10629 10637 10653 10672 10689 10696 10705 10716 10728 10735 10743 10748 10755 10767 10779 10788 10798 10807 10816 10825 10835 10842 10848 10857 10866 10876 10883 10890 10898 10905 10913 10920 10923 10925 10928 10931 10934
10551 10556 10559 10571 10582 10591 10598 10609 10618 10629 10651 10664 10673 10682 10689 10698 10708 10716 10723 10731 10742 10751 10764 10776 10786 10795 10803 10810 10820 10828 10835 10843 10851 10860 10868 10875 10881 10886 10892 10899 10904 10908 10913 10917
10537 10542 10547 10554 10563 10572 10580 10590 10599 10611 10627 10643 10647 10655 10662 10669 10679 10691 10700 10708 10719 10729 10740 10751 10762 10768 10774 10785 10797 10803 10811 10819 10826 10834 10843 10851 10857 10864 10869 10873 10880 10885 10891 10894
10525 10529 10535 10541 10548 10558 10568 10576 10583 10592 10605 10617 10627 10632 10639 10649 10658 10669 10680 10693 10699 10705 10711 10721 10731 10740 10752 10761 10767 10775 10785 10793 10801 10809 10817 10825 10834 10841 10846 10851 10857 10862 10866 10872
10516 10521 10525 10532 10535 10541 10548 10556 10566 10573 10580 10589 10599 10610 10618 10626 10632 10641 10655 10669 10676 10682 10686 10693 10703 10717 10729 10738 10745 10751 10759 10766 10775 10784 10791 10799 10807 10813 10821 10827 10834 10839 10844 10850